Pampa, TX

5:57 PM CDT on August 24, 2016 (GMT -0500)
Perry Lefors

Weather History for KPPA - January, 2013

Change the Weather History Date:

Saturday, January 12, 2013

  Actual Average Record
Temperature  
Mean Temperature 23 °F -  
Max Temperature 32 °F 45 °F 70 °F (2014)
Min Temperature 12 °F 20 °F 3 °F (1977)
Degree Days  
Heating Degree Days 42    
Moisture  
Dew Point 19 °F    
Average Humidity 79    
Maximum Humidity 93    
Minimum Humidity 51    
Precipitation  
Precipitation 0.00 in - - ()
Sea Level Pressure  
Sea Level Pressure 29.95 in    
Wind  
Wind Speed 10 mph (NNE)    
Max Wind Speed 17 mph    
Max Gust Speed 22 mph    
Visibility 9 miles    
Events Snow    
Averages and records for this station are not official NWS values.
T = Trace of Precipitation, MM = Missing Value Source: NWS Daily Summary

Daily Weather History Graph

Daily Weather History Graph

Search for Another Location

Airport or City:

Trip Planner

Search our weather history database for the weather conditions in past years. The results will help you decide how hot, cold, wet, or windy it might be!

Date:

Astronomy

Jan. 12, 2013 Rise Set
Actual Time 7:53 AM CST 5:51 PM CST
Civil Twilight 7:25 AM CST 6:19 PM CST
Nautical Twilight 6:54 AM CST 6:50 PM CST
Astronomical Twilight 6:23 AM CST 7:21 PM CST
Moon 8:17 AM CST (1/12) 7:18 PM CST (1/12)
Length of Visible Light 10h 53m
Length of Day
9h 58m
New Moon, 1% of the Moon is Illuminated
Jan 12
New Moon
Jan 18
First Quarter
Jan 26
Full
Feb 3
Last Quarter
Feb 10
New

Hourly Weather History & Observations

Time (CST) Temp. Windchill Dew Point Humidity Pressure Visibility Wind Dir Wind Speed Gust Speed Precip Events Conditions
12:35 AM 32.0 °F 24.8 °F 15.8 °F 51% 29.87 in 10.0 mi NW 8.1 mph - N/A   Clear
12:55 AM 32.0 °F 25.6 °F 17.6 °F 55% 29.87 in 10.0 mi NW 6.9 mph - N/A   Clear
1:15 AM 30.2 °F 23.4 °F 19.4 °F 64% 29.87 in 10.0 mi NNW 6.9 mph - N/A   Clear
1:35 AM 30.2 °F 24.3 °F 19.4 °F 64% 29.88 in 10.0 mi NNW 5.8 mph - N/A   Clear
2:15 AM 30.2 °F 24.3 °F 19.4 °F 64% 29.89 in 10.0 mi North 5.8 mph - N/A   Scattered Clouds
2:35 AM 32.0 °F 25.6 °F 17.6 °F 55% 29.89 in 10.0 mi North 6.9 mph - N/A   Scattered Clouds
2:55 AM 30.2 °F 25.4 °F 19.4 °F 64% 29.90 in 10.0 mi North 4.6 mph - N/A   Mostly Cloudy
3:35 AM 30.2 °F 26.7 °F 19.4 °F 64% 29.90 in 10.0 mi North 3.5 mph - N/A   Overcast
3:55 AM 30.2 °F 25.4 °F 19.4 °F 64% 29.89 in 10.0 mi North 4.6 mph - N/A   Mostly Cloudy
4:15 AM 30.2 °F 24.3 °F 21.2 °F 69% 29.89 in 10.0 mi North 5.8 mph - N/A   Mostly Cloudy
4:35 AM 32.0 °F 24.8 °F 19.4 °F 60% 29.89 in 10.0 mi NNE 8.1 mph - N/A   Overcast
4:55 AM 30.2 °F 20.2 °F 21.2 °F 69% 29.90 in 10.0 mi NNE 12.7 mph 17.3 mph N/A   Overcast
5:15 AM 30.2 °F 20.2 °F 23.0 °F 75% 29.90 in 10.0 mi NNE 12.7 mph - N/A   Mostly Cloudy
5:35 AM 28.4 °F 17.0 °F 23.0 °F 80% 29.91 in 10.0 mi NE 15.0 mph - N/A   Scattered Clouds
5:55 AM 28.4 °F 18.0 °F 23.0 °F 80% 29.92 in 10.0 mi NE 12.7 mph 17.3 mph N/A   Mostly Cloudy
6:15 AM 28.4 °F 18.0 °F 23.0 °F 80% 29.92 in 10.0 mi NE 12.7 mph - N/A   Scattered Clouds
6:55 AM 28.4 °F 19.1 °F 23.0 °F 80% 29.93 in 10.0 mi NE 10.4 mph - N/A   Mostly Cloudy
7:15 AM 28.4 °F 18.0 °F 23.0 °F 80% 29.94 in 10.0 mi NE 12.7 mph - N/A   Overcast
7:55 AM 26.6 °F 15.7 °F 23.0 °F 86% 29.94 in 10.0 mi NE 12.7 mph - N/A   Overcast
8:15 AM 26.6 °F 15.2 °F 23.0 °F 86% 29.95 in 10.0 mi NNE 13.8 mph - N/A   Overcast
8:35 AM 26.6 °F 16.2 °F 23.0 °F 86% 29.96 in 10.0 mi NNE 11.5 mph - N/A   Overcast
8:55 AM 26.6 °F 13.8 °F 23.0 °F 86% 29.96 in 10.0 mi NNE 17.3 mph - N/A   Overcast
9:15 AM 26.6 °F 13.8 °F 21.2 °F 80% 29.97 in 10.0 mi NNE 17.3 mph 20.7 mph N/A   Overcast
9:35 AM 26.6 °F 14.3 °F 19.4 °F 74% 29.96 in 10.0 mi NE 16.1 mph - N/A   Overcast
9:55 AM 26.6 °F 14.7 °F 17.6 °F 69% 29.98 in 10.0 mi NE 15.0 mph - N/A   Overcast
10:15 AM 28.4 °F 16.6 °F 17.6 °F 64% 29.98 in 10.0 mi NE 16.1 mph - N/A   Overcast
10:35 AM 28.4 °F 16.6 °F 17.6 °F 64% 29.97 in 10.0 mi NE 16.1 mph - N/A   Overcast
10:55 AM 28.4 °F 16.6 °F 17.6 °F 64% 29.98 in 10.0 mi NE 16.1 mph - N/A   Overcast
11:15 AM 28.4 °F 17.0 °F 15.8 °F 59% 29.96 in 10.0 mi NE 15.0 mph - N/A   Overcast
11:35 AM 26.6 °F 14.3 °F 15.8 °F 64% 29.97 in 10.0 mi NNE 16.1 mph - N/A   Mostly Cloudy
11:55 AM 26.6 °F 14.7 °F 15.8 °F 64% 29.95 in 10.0 mi NNE 15.0 mph 18.4 mph N/A   Overcast
12:15 PM 26.6 °F 15.2 °F 14.0 °F 59% 29.97 in 10.0 mi NNE 13.8 mph 21.9 mph N/A   Overcast
12:55 PM 24.8 °F 12.9 °F 17.6 °F 74% 29.96 in 1.0 mi NNE 13.8 mph 20.7 mph N/A Snow Light Snow
1:15 PM 23.0 °F 10.6 °F 19.4 °F 86% 29.96 in 0.5 mi North 13.8 mph - N/A Snow Snow
1:35 PM 23.0 °F 10.1 °F 19.4 °F 86% 29.94 in 0.5 mi North 15.0 mph - N/A Snow Snow
1:55 PM 23.0 °F 10.1 °F 19.4 °F 86% 29.95 in - North 15.0 mph 19.6 mph N/A   Overcast
2:15 PM 21.2 °F 10.1 °F 19.4 °F 93% 29.96 in - North 10.4 mph 19.6 mph N/A   Overcast
2:35 PM 21.2 °F 10.1 °F 19.4 °F 93% 29.96 in - North 10.4 mph - N/A   Overcast
2:55 PM 21.2 °F 8.3 °F 19.4 °F 93% 29.96 in - North 13.8 mph - N/A   Overcast
3:15 PM 21.2 °F 7.8 °F 19.4 °F 93% 29.95 in - North 15.0 mph - N/A   Unknown
3:35 PM 21.2 °F 8.3 °F 17.6 °F 86% 29.94 in - NNE 13.8 mph - N/A   Unknown
3:55 PM 21.2 °F 7.3 °F 17.6 °F 86% 29.94 in - NNE 16.1 mph 20.7 mph N/A   Overcast
4:15 PM 21.2 °F 8.3 °F 17.6 °F 86% 29.94 in - NNE 13.8 mph - N/A   Unknown
4:35 PM 21.2 °F 7.3 °F 17.6 °F 86% 29.95 in - NNE 16.1 mph 19.6 mph N/A   Overcast
4:55 PM 19.4 °F 5.0 °F 17.6 °F 93% 29.95 in - North 16.1 mph - N/A   Overcast
5:15 PM 19.4 °F 7.2 °F 17.6 °F 93% 29.96 in 5.0 mi North 11.5 mph - N/A   Overcast
5:35 PM 19.4 °F 7.9 °F 17.6 °F 93% 29.97 in 7.0 mi North 10.4 mph - N/A   Overcast
5:55 PM 19.4 °F 5.5 °F 17.6 °F 93% 29.96 in 10.0 mi NNE 15.0 mph - N/A   Overcast
6:15 PM 19.4 °F 6.6 °F 17.6 °F 93% 29.97 in 7.0 mi North 12.7 mph - N/A   Overcast
6:35 PM 19.4 °F 8.6 °F 17.6 °F 93% 29.97 in 7.0 mi NNE 9.2 mph - N/A Snow Light Snow
7:15 PM 19.4 °F 6.6 °F 17.6 °F 93% 29.98 in 7.0 mi NNE 12.7 mph - N/A Snow Light Snow
7:55 PM 19.4 °F 7.2 °F 17.6 °F 93% 30.00 in 7.0 mi NNE 11.5 mph - N/A Snow Light Snow
8:35 PM 19.4 °F 7.9 °F 17.6 °F 93% 30.00 in 7.0 mi NE 10.4 mph - N/A Snow Light Snow
8:55 PM 19.4 °F 9.5 °F 17.6 °F 93% 30.01 in 7.0 mi NNE 8.1 mph - N/A Snow Light Snow
9:15 PM 19.4 °F 9.5 °F 17.6 °F 93% 30.03 in 5.0 mi NNE 8.1 mph - N/A Snow Light Snow
9:35 PM 19.4 °F 8.6 °F 17.6 °F 93% 30.04 in 5.0 mi NE 9.2 mph - N/A Snow Light Snow
9:55 PM 19.4 °F 7.2 °F 14.0 °F 80% 30.01 in 7.0 mi NE 11.5 mph - N/A Snow Light Snow
10:15 PM 17.6 °F 7.3 °F 14.0 °F 86% 30.01 in 10.0 mi NE 8.1 mph - N/A Snow Light Snow
10:55 PM 14.0 °F 5.1 °F 12.2 °F 93% 30.01 in 10.0 mi North 5.8 mph - N/A   Mostly Cloudy
11:35 PM 12.2 °F 0.7 °F 10.4 °F 92% 30.03 in 10.0 mi North 8.1 mph - N/A   Scattered Clouds